Location: Kerguer�zec
(48.4509°N, 4.7600°W)
Time: 08:57:40
(UTC+00:00)

Cosmos 1656 - Pass Details

Date: 09 April 2020
Orbit: 798 x 849 km, 71.1° (Epoch: 01 June)

Event Time Altitude Azimuth Distance (km) Brightness Sun altitude
Rises 21:23:27 0° 331° (NNW) 3,421 8.1 -21.5°
Reaches altitude 10° 21:25:55 10° 331° (NNW) 2,478 7.1 -21.8°
Maximum altitude 21:31:37 83° 245° (WSW) 853 3.6 -22.5°
Enters shadow 21:33:16 48° 163° (SSE) 1,085 3.9 -22.7°
